Location: Quaker Farms
(41.4276°N, 73.1557°W)
Time: 01:36:06
(UTC+00:00)

Altair - Pass Details

Date: 23 June 2021
Orbit: 1501 x 1682 km, 47.2° (Epoch: 23 July)

Event Time Altitude Azimuth Distance (km) Brightness Sun altitude
Rises 20:03:07 0° 279° (W) 4,714 10.7 47.1°
Reaches altitude 10° 20:06:12 10° 283° (WNW) 3,754 10.4 46.5°
Maximum altitude 20:15:41 63° 4° (N) 1,769 8.5 44.7°
Drops below altitude 10° 20:25:32 10° 84° (E) 3,894 9.3 42.9°
Sets 20:28:48 0° 88° (E) 4,899 9.7 42.3°
